Home   Weather   Strausberg   Past weeks

Flag for Germany Past Weather in Strausberg, Brandenburg, Germany — Yesterday and Last 2 Weeks

Now
66 °F

Passing clouds.


Feels Like: 66 °F
Forecast: 46 / 58 °F
Wind: 14 mph from Southwest

Location: Berlin-Schoenefeld

Current Time: Sep 30, 2016 at 3:37:16 PM

Latest Report: Sep 30, 2016 at 2:50 PM


Visibility: N/A

Pressure: 29.92 "Hg

Humidity: 49%

Dew Point: 46 °F

Location of StrausbergLocation

Past Weather in Strausberg — Graph

°F

Strausberg Temperature Yesterday

Maximum temperature yesterday: 77 °F (at 3:50 PM)
Minimum temperature yesterday: 59 °F (at 12:20 AM)
Average temperature yesterday: 68 °F

High & Low Weather Summary for the Past Weeks

 TemperatureHumidityPressure
High81 °F (Sep 16, 1:20 PM)100% (Sep 24, 4:50 AM)30.30 "Hg (Sep 24, 4:50 AM)
Low43 °F (Sep 22, 3:50 AM)28% (Sep 15, 2:20 PM)29.83 "Hg (Sep 16, 5:20 PM)
Average60 °F64%30.08 "Hg
* Reported Sep 15 2:20 PM — Sep 30 2:20 PM, Strausberg, Weather by CustomWeather, © 2016

Note: Actual official high and low records may vary slightly from our data, if they occured in-between our weather recording intervals... More about our weather records

Advertising

Strausberg Weather History for the Previous 24 Hours

Scroll right to see more
 ConditionsComfort  
Time TempWeatherWind HumidityBarometerVisibility
2:20 PM
Fri, Sep 30
68 °FPassing clouds.13 mph49%29.92 "HgN/A
1:50 PM64 °FScattered clouds.14 mph52%29.92 "HgN/A
1:20 PM66 °FScattered clouds.12 mph49%29.92 "HgN/A
12:50 PM64 °FPartly sunny.14 mph52%29.92 "HgN/A
12:20 PM64 °FScattered clouds.13 mph56%29.92 "HgN/A
11:50 AM63 °FBroken clouds.13 mph59%29.92 "HgN/A
11:20 AM63 °FBroken clouds.10 mph56%29.92 "HgN/A
10:50 AM61 °FPartly sunny.10 mph68%29.92 "HgN/A
10:20 AM61 °FPartly sunny.7 mph72%29.95 "HgN/A
9:50 AM61 °FPartly sunny.9 mph68%29.92 "HgN/A
9:20 AM59 °FOvercast.8 mph77%29.92 "HgN/A
8:50 AM59 °FOvercast.7 mph77%29.92 "HgN/A
8:20 AM59 °FOvercast.8 mph77%29.92 "HgN/A
7:50 AM59 °FSunny.9 mph72%29.92 "Hg10 mi
7:20 AM59 °FSunny.8 mph72%29.92 "Hg10 mi
6:50 AM59 °FPassing clouds.8 mph72%29.89 "HgN/A
6:20 AM59 °FPassing clouds.9 mph68%29.89 "HgN/A
5:50 AM59 °FPassing clouds.8 mph68%29.89 "HgN/A
5:20 AM59 °FPassing clouds.9 mph68%29.89 "HgN/A
4:50 AM59 °FPassing clouds.10 mph72%29.89 "HgN/A
4:20 AM59 °FPassing clouds.9 mph72%29.89 "HgN/A
3:50 AM59 °FPassing clouds.10 mph72%29.89 "HgN/A
3:20 AM59 °FPassing clouds.10 mph72%29.89 "HgN/A
2:50 AM59 °FPartly cloudy.18 mph72%29.89 "HgN/A
2:20 AM59 °FPartly cloudy.20 mph77%29.89 "HgN/A
1:50 AM63 °FPassing clouds.14 mph73%29.86 "HgN/A
1:20 AM64 °FClear.9 mph64%29.83 "Hg10 mi
12:50 AM63 °FClear.8 mph68%29.83 "Hg10 mi
12:20 AM61 °FClear.9 mph68%29.83 "Hg10 mi
11:50 PM
Thu, Sep 29
66 °FClear.9 mph60%29.83 "Hg10 mi
11:20 PM68 °FClear.9 mph56%29.83 "Hg10 mi
10:50 PM70 °FClear.14 mph53%29.83 "Hg10 mi
10:20 PM70 °FClear.14 mph53%29.83 "Hg10 mi
9:50 PM70 °FClear.13 mph50%29.83 "Hg10 mi
9:20 PM70 °FClear.14 mph50%29.83 "Hg10 mi
8:50 PM70 °FClear.15 mph46%29.83 "Hg10 mi
8:20 PM72 °FClear.14 mph44%29.83 "Hg10 mi
7:50 PM73 °FClear.15 mph38%29.83 "Hg10 mi
7:20 PM73 °FClear.16 mph38%29.83 "Hg10 mi
6:50 PM73 °FClear.14 mph38%29.83 "Hg10 mi
6:20 PM73 °FSunny.9 mph38%29.83 "Hg10 mi
5:50 PM75 °FSunny.10 mph34%29.83 "Hg10 mi
5:20 PM75 °FSunny.15 mph34%29.86 "Hg10 mi
4:50 PM75 °FSunny.13 mph34%29.86 "Hg10 mi
4:20 PM75 °FSunny.17 mph34%29.86 "Hg10 mi
3:50 PM77 °FSunny.20 mph32%29.89 "Hg10 mi
3:20 PM75 °FSunny.18 mph34%29.89 "Hg10 mi
Weather by CustomWeather, © 2016

See weather overviewHow to use our weather pages